When you browse on this site, cookies collect data to enhance your experience and personalize the content and advertising you see.
Visit our Privacy Policy to learn more. By continuing to use the site, you agree to this use of cookies and data.
  • In Hungary
  • List of Countries
  • For 7 days
  • Water Temperature
  • Weather Map
  • News
  • Weather Widgets
  • user-avatar
    Login

    Hourly Weather Kakanj

    Today, 27 May, Wednesday

    Time Temperature Precipitation Wind Pressure Humidity
    00:00 +8°C° 0.1 mm 2 mps 729 mmHg 98%
    01:00 +9°C° 0 mm 1 mps 729 mmHg 99%
    02:00 +9°C° 0.1 mm 1 mps 729 mmHg 98%
    03:00 +9°C° 0.1 mm 1 mps 729 mmHg 98%
    04:00 +9°C° 0.1 mm 1 mps 729 mmHg 98%
    05:00 +8°C° 0.1 mm 2 mps 729 mmHg 97%
    06:00 +9°C° 0.1 mm 2 mps 730 mmHg 97%
    07:00 +9°C° 0 mm 2 mps 730 mmHg 96%
    08:00 +9°C° 0.2 mm 2 mps 730 mmHg 95%
    09:00 +10°C° 0.2 mm 2 mps 730 mmHg 95%
    10:00 +10°C° 0.2 mm 2 mps 730 mmHg 94%
    11:00 +10°C° 0.2 mm 2 mps 730 mmHg 93%
    12:00 +12°C° 0.2 mm 2 mps 730 mmHg 91%
    13:00 +13°C° 0.2 mm 2 mps 729 mmHg 90%
    14:00 +13°C° 0.4 mm 2 mps 729 mmHg 90%
    15:00 +14°C° 0.4 mm 2 mps 729 mmHg 89%
    16:00 +14°C° 0.4 mm 2 mps 729 mmHg 89%
    17:00 +13°C° 0.5 mm 2 mps 729 mmHg 91%
    18:00 +13°C° 0.5 mm 2 mps 729 mmHg 94%
    19:00 +12°C° 0.5 mm 1 mps 729 mmHg 96%
    20:00 +11°C° 0.2 mm 1 mps 729 mmHg 96%
    21:00 +11°C° 0.2 mm 1 mps 729 mmHg 96%
    22:00 +10°C° 0.2 mm 1 mps 729 mmHg 96%
    23:00 +10°C° 0.1 mm 1 mps 729 mmHg 96%

    Tomorrow, 28 May, Thursday

    Time Temperature Precipitation Wind Pressure Humidity
    00:00 +10°C° 0.1 mm 1 mps 729 mmHg 96%
    01:00 +9°C° 0.1 mm 1 mps 728 mmHg 96%
    02:00 +9°C° 0 mm 1 mps 728 mmHg 96%
    03:00 +10°C° 0 mm 1 mps 728 mmHg 96%
    04:00 +10°C° 0 mm 1 mps 728 mmHg 97%
    05:00 +11°C° 0 mm 1 mps 728 mmHg 95%
    06:00 +12°C° 0 mm 1 mps 728 mmHg 93%
    07:00 +13°C° 0 mm 1 mps 727 mmHg 91%
    08:00 +14°C° 0.3 mm 2 mps 727 mmHg 86%
    09:00 +15°C° 0.3 mm 2 mps 727 mmHg 81%
    10:00 +16°C° 0.3 mm 3 mps 727 mmHg 76%
    11:00 +17°C° 0.4 mm 3 mps 727 mmHg 72%
    12:00 +17°C° 0.4 mm 3 mps 727 mmHg 69%
    13:00 +18°C° 0.4 mm 3 mps 726 mmHg 65%
    14:00 +18°C° 0.3 mm 3 mps 726 mmHg 66%
    15:00 +17°C° 0.3 mm 3 mps 725 mmHg 67%
    16:00 +17°C° 0.3 mm 3 mps 725 mmHg 68%
    17:00 +16°C° 0.1 mm 2 mps 725 mmHg 74%
    18:00 +14°C° 0.1 mm 2 mps 725 mmHg 80%
    19:00 +13°C° 0.1 mm 1 mps 725 mmHg 86%
    20:00 +12°C° 0.2 mm 1 mps 725 mmHg 89%
    21:00 +12°C° 0.2 mm 1 mps 726 mmHg 91%
    22:00 +12°C° 0.2 mm 1 mps 726 mmHg 93%
    23:00 +12°C° 0.5 mm 1 mps 726 mmHg 95%

    Day after tomorrow, 29 May, Friday

    Time Temperature Precipitation Wind Pressure Humidity
    00:00 +11°C° 0.5 mm 1 mps 725 mmHg 96%
    01:00 +11°C° 0.5 mm 1 mps 725 mmHg 97%
    02:00 +11°C° 0.1 mm 1 mps 725 mmHg 97%
    03:00 +10°C° 0.1 mm 1 mps 725 mmHg 97%
    04:00 +9°C° 0.1 mm 1 mps 725 mmHg 97%
    05:00 +10°C° 0 mm 1 mps 725 mmHg 95%
    06:00 +10°C° 0 mm 1 mps 725 mmHg 94%
    07:00 +11°C° 0 mm 1 mps 725 mmHg 92%
    08:00 +12°C° 0.1 mm 1 mps 725 mmHg 89%
    09:00 +13°C° 0.1 mm 1 mps 725 mmHg 86%
    10:00 +13°C° 0.1 mm 1 mps 725 mmHg 83%
    11:00 +14°C° 0.2 mm 2 mps 725 mmHg 80%
    12:00 +15°C° 0.2 mm 2 mps 724 mmHg 78%
    13:00 +15°C° 0.2 mm 2 mps 724 mmHg 75%
    14:00 +16°C° 0.1 mm 2 mps 724 mmHg 73%
    15:00 +16°C° 0.1 mm 2 mps 723 mmHg 70%
    16:00 +17°C° 0.1 mm 2 mps 723 mmHg 67%
    17:00 +15°C° 0.1 mm 2 mps 723 mmHg 76%
    18:00 +14°C° 0.1 mm 1 mps 723 mmHg 84%
    19:00 +12°C° 0.1 mm 1 mps 723 mmHg 93%
    20:00 +11°C° 0 mm 1 mps 723 mmHg 94%
    21:00 +10°C° 0 mm 1 mps 723 mmHg 95%
    22:00 +8°C° 0 mm 0 mps 723 mmHg 96%
    23:00 +8°C° 0 mm 0 mps 723 mmHg 96%

    30 May, Saturday

    Time Temperature Precipitation Wind Pressure Humidity
    00:00 +8°C° 0 mm 0 mps 723 mmHg 96%
    01:00 +8°C° 0 mm 0 mps 723 mmHg 96%
    02:00 +8°C° 0 mm 0 mps 722 mmHg 96%
    03:00 +7°C° 0 mm 0 mps 722 mmHg 96%
    04:00 +7°C° 0 mm 0 mps 722 mmHg 96%
    05:00 +9°C° 0 mm 0 mps 722 mmHg 94%
    06:00 +10°C° 0 mm 0 mps 723 mmHg 91%
    07:00 +12°C° 0 mm 0 mps 723 mmHg 89%
    08:00 +14°C° 0.6 mm 1 mps 723 mmHg 86%
    09:00 +15°C° 0.6 mm 1 mps 723 mmHg 84%
    10:00 +16°C° 0.6 mm 1 mps 723 mmHg 82%
    11:00 +16°C° 1.2 mm 2 mps 723 mmHg 84%
    12:00 +16°C° 1.2 mm 2 mps 723 mmHg 86%
    13:00 +16°C° 1.2 mm 2 mps 723 mmHg 88%
    14:00 +16°C° 1.1 mm 2 mps 723 mmHg 88%
    15:00 +16°C° 1.1 mm 2 mps 722 mmHg 88%
    16:00 +16°C° 1.1 mm 2 mps 722 mmHg 87%
    17:00 +15°C° 0.6 mm 1 mps 722 mmHg 90%
    18:00 +14°C° 0.6 mm 1 mps 722 mmHg 93%
    19:00 +12°C° 0.6 mm 1 mps 722 mmHg 96%
    20:00 +12°C° 0.1 mm 1 mps 722 mmHg 96%
    21:00 +11°C° 0.1 mm 1 mps 723 mmHg 96%
    22:00 +10°C° 0.1 mm 1 mps 723 mmHg 96%
    23:00 +11°C° 0.1 mm 1 mps 723 mmHg 96%

    31 May, Sunday

    Time Temperature Precipitation Wind Pressure Humidity
    00:00 +11°C° 0.1 mm 1 mps 723 mmHg 96%
    01:00 +11°C° 0.1 mm 1 mps 723 mmHg 96%
    02:00 +10°C° 0 mm 1 mps 723 mmHg 96%
    03:00 +8°C° 0 mm 0 mps 723 mmHg 95%
    04:00 +8°C° 0 mm 0 mps 723 mmHg 95%
    05:00 +9°C° 0 mm 0 mps 723 mmHg 91%
    06:00 +10°C° 0 mm 0 mps 723 mmHg 87%
    07:00 +12°C° 0 mm 0 mps 723 mmHg 83%
    08:00 +14°C° 0 mm 1 mps 723 mmHg 72%
    09:00 +16°C° 0 mm 1 mps 723 mmHg 61%
    10:00 +18°C° 0 mm 2 mps 723 mmHg 51%
    11:00 +18°C° 0 mm 2 mps 723 mmHg 50%
    12:00 +18°C° 0 mm 2 mps 723 mmHg 50%
    13:00 +19°C° 0 mm 2 mps 722 mmHg 50%
    14:00 +18°C° 0.1 mm 2 mps 722 mmHg 54%
    15:00 +18°C° 0.1 mm 2 mps 722 mmHg 57%
    16:00 +18°C° 0.1 mm 2 mps 721 mmHg 61%
    17:00 +16°C° 0.2 mm 2 mps 721 mmHg 69%
    18:00 +14°C° 0.2 mm 1 mps 721 mmHg 78%
    19:00 +13°C° 0.2 mm 1 mps 721 mmHg 86%
    20:00 +12°C° 0 mm 1 mps 721 mmHg 88%
    21:00 +10°C° 0 mm 0 mps 722 mmHg 89%
    22:00 +10°C° 0 mm 0 mps 722 mmHg 91%
    23:00 +9°C° 0 mm 0 mps 722 mmHg 91%

    1 June, Monday

    Time Temperature Precipitation Wind Pressure Humidity
    00:00 +9°C° 0 mm 0 mps 722 mmHg 92%
    01:00 +8°C° 0 mm 0 mps 722 mmHg 92%
    02:00 +8°C° 0 mm 0 mps 721 mmHg 92%
    03:00 +8°C° 0 mm 0 mps 721 mmHg 92%
    04:00 +8°C° 0 mm 0 mps 721 mmHg 91%
    05:00 +10°C° 0 mm 0 mps 721 mmHg 86%
    06:00 +12°C° 0 mm 0 mps 721 mmHg 81%
    07:00 +13°C° 0 mm 0 mps 722 mmHg 75%
    08:00 +16°C° 0.1 mm 1 mps 722 mmHg 69%
    09:00 +18°C° 0.1 mm 1 mps 722 mmHg 62%
    10:00 +20°C° 0.1 mm 1 mps 722 mmHg 56%
    11:00 +19°C° 0.5 mm 2 mps 722 mmHg 62%
    12:00 +19°C° 0.5 mm 2 mps 722 mmHg 68%
    13:00 +18°C° 0.5 mm 2 mps 722 mmHg 74%
    14:00 +18°C° 1 mm 2 mps 721 mmHg 78%
    15:00 +18°C° 1 mm 2 mps 721 mmHg 82%
    16:00 +17°C° 1 mm 2 mps 721 mmHg 85%
    17:00 +16°C° 0.5 mm 2 mps 721 mmHg 88%
    18:00 +15°C° 0.5 mm 1 mps 721 mmHg 92%
    19:00 +14°C° 0.5 mm 1 mps 721 mmHg 95%
    20:00 +13°C° 0 mm 1 mps 721 mmHg 96%
    21:00 +12°C° 0 mm 1 mps 722 mmHg 97%
    22:00 +11°C° 0 mm 1 mps 722 mmHg 97%
    23:00 +10°C° 0 mm 0 mps 722 mmHg 97%
    Show more